Regional Weather Roundup
Issued by NWS Northern Indiana

Home | Current Version | Previous Version | Graphics & Text | Print | Product List | Glossary On
Versions: 1 2 3 4 5 6 7 8 9 10 11 12 13 14 15 16 17 18 19 20 21 22 23 24 25 26 27 28 29 30 31 32 33 34 35 36 37 38 39 40 41 42 43 44 45 46 47 48 49 50
000
ASUS43 KIWX 252300
RWRIWX

KIWX WEATHER ROUNDUP
NATIONAL WEATHER SERVICE NORTHERN INDIANA
600 PM EST THU DEC 25 2014

NOTE: "FAIR" INDICATES FEW OR NO CLOUDS BELOW 12,000 FEET WITH NO
SIGNIFICANT WEATHER AND/OR OBSTRUCTIONS TO VISIBILITY.

* THESE STATIONS ARE NOT UNDER NWS QUALITY CONTROL. THEY ALSO MAY NOT
  REPORT WEATHER SUCH AS PRECIPITATION OR FOG.

INZ001>027-260000-
NORTHERN INDIANA

CITY           SKY/WX    TMP DP  RH WIND       PRES   REMARKS
GARY*          PTCLDY    41  30  65 S12       30.02S
KNOX*          PTCLDY    36  29  75 S7        30.04S
SOUTH BEND     CLEAR     36  30  79 S8        30.05R
GOSHEN         PTCLDY    35  30  82 S8        30.06R WCI  29
ANGOLA*        MOCLDY    36  28  75 SW8       30.06R
FORT WAYNE     MOCLDY    37  31  78 SW9       30.11R
PERU/GRISSOM   PTCLDY    34  34 100 S8        30.10R WCI  28

$$
INZ028>050-260000-
CENTRAL INDIANA

CITY           SKY/WX    TMP DP  RH WIND       PRES   REMARKS
LAFAYETTE      CLEAR     38  31  76 S6        30.09R
KOKOMO*        CLEAR     36  30  80 SW8       30.11R
MUNCIE*        CLOUDY    39  31  72 SW7       30.12R
INDIANAPOLIS   PTCLDY    35  30  82 S6        30.12R WCI  30

$$
MIZ043>046-050>051-056>058-064>065-071>073-077>080-260000-
SOUTHWEST LOWER MICHIGAN

CITY           SKY/WX    TMP DP  RH WIND       PRES   REMARKS
BATTLE CREEK   CLEAR     34  28  79 S8        30.03R WCI  27
BENTON HARBOR  CLEAR     36  30  79 S7        30.02R
COLDWATER*     CLOUDY    35  30  83 MISG      30.05R
HILLSDALE*     MOCLDY    35  31  84 SW7       30.04F WCI  29
HOLLAND        CLEAR     38  30  73 SW14      30.01R
GRAND RAPIDS   PTCLDY    34  29  82 SW8       30.01R WCI  27
KALAMAZOO      CLEAR     35  28  75 S8        30.04R WCI  29
STURGIS*       CLOUDY    34  30  86 SW8       30.06R WCI  27
THREE RIVERS*  FAIR      35  30  83 SW7       30.05R WCI  29

$$
OHZ001>008-015>018-024>025-260000-
NORTHWEST OHIO

CITY           SKY/WX    TMP DP  RH WIND       PRES   REMARKS
DEFIANCE       CLOUDY    38  31  76 SW8       30.11R
FINDLAY        CLOUDY    38  30  73 SW15G22   30.12R
TOLEDO EXPRESS CLOUDY    37  29  72 SW9       30.10R
TOLEDO METCALF CLOUDY    38  30  73 SW12      30.12R
LIMA           CLOUDY    39  30  70 SW9       30.12R

$$
AND FOR LAKE MICHIGAN COASTAL AND OPEN LAKE BUOY OBSERVATIONS

STATION/POSITION TEMP    WIND        PRES    VSBY  WAVE
                 AIR SEA DIR/SP/G                  HT/PER
                 (F)     (DEG/KT/KT) (MB)    (MI)  (FT/S)
CALUMET HARBOR    41     170/  9/ 15 1014.5F
MICHIGAN CITY     40     170/ 12/ 15   N/A
SAINT JOSEPH      39     170/  4/ 14 1016.9S

$$
&&


USA.gov is the U.S. government's official web portal to all federal, state and local government web resources and services.